Miscellaneous Local Product
Issued by NWS North Platte, NE

Home | Current Version | Previous Version | Text Only | Print | Product List | Glossary On
Versions: 1 2 3 4 5 6 7 8 9 10 11 12 13 14 15 16 17 18 19 20 21 22 23 24 25 26 27 28 29 30 31 32 33 34 35 36 37 38 39 40 41 42 43 44 45 46 47 48 49 50
000
AXUS43 KLBF 042010
MISLBF


WESTERN AND NORTH CENTRAL NEBRASKA HOURLY WEATHER ROUNDUP
NATIONAL WEATHER SERVICE NORTH PLATTE NE
300 PM CDT MON MAY 04 2015

***STATIONS NOT REPORTING VARIABLES SUCH AS SKY/WEATHER OR
PRESSURE ARE PROVIDED BY THE NEBRASKA DEPARTMENT OF
ROADS...RAWS...AND APRS NETWORKS...AND ARE NOT UNDER
NATIONAL WEATHER SERVICE QUALITY CONTROL***

...OBSERVATIONS IN AND NEAR THE EASTERN PANHANDLE OF NEBRASKA...

CITY           SKY/WX    TMP DP  RH WIND       PRES   REMARKS
PINE RIDGE     CLOUDY    54  34  46 E14       30.17F
CHADRON        CLOUDY    52  37  56 E8        30.17F
ALLIANCE       CLOUDY    56  32  40 E12       30.14F
SIDNEY         PTSUNNY   62  41  46 SE14      30.13F
WHITECLAY        N/A     53  35  50 E8          N/A
CRESCENT LAKE    N/A     60  32  35 E9          N/A
BIG SPRINGS      N/A     57  39  51 E13         N/A
$$

...OBSERVATIONS IN NORTH CENTRAL NEBRASKA...

CITY           SKY/WX    TMP DP  RH WIND       PRES   REMARKS
VALENTINE      CLOUDY    66  24  20 E16G24    30.16F
THEDFORD       CLOUDY    65  31  27 E16       30.14F
AINSWORTH      CLOUDY    69  23  17 E12G22    30.14F
O`NEILL        CLOUDY    68  32  26 E16       30.14F
ORD            CLOUDY    63  40  42 E10G21    30.11S
BROKEN BOW     LGT RAIN  59  39  47 E9        30.13R
BROWNLEE         N/A     67  26  21 NE18        N/A
VALENTINE NWR    N/A     61  26  26 NE12G18     N/A
SPRINGVIEW       N/A     69  28  21 NE10G20     N/A
HALSEY           N/A     64  27  24 E9G16       N/A
BREWSTER         N/A     66  30  26 E13         N/A
ROSE             N/A     65  34  31 E15         N/A
NEWPORT          N/A     69  32  25 E13         N/A
SARGENT          N/A     61  37  41 NE3G12      N/A
COMSTOCK         N/A     61  46  58 E10         N/A
EWING            N/A     66  37  34 E13G23      N/A
$$

...OBSERVATIONS IN SOUTHWEST NEBRASKA AND FAR NORTHEAST COLORADO...

CITY           SKY/WX    TMP DP  RH WIND       PRES   REMARKS
WRAY           CLOUDY    54  48  81 NE9       30.14S
IMPERIAL       LGT RAIN  51  45  79 NE13      30.13F
OGALLALA       LGT RAIN  57  35  42 SE10      30.15S
NORTH PLATTE   LGT RAIN  49  43  80 E15       30.14S
MCCOOK         CLOUDY    57  44  62 NE14      30.12R
LEXINGTON      CLOUDY    52  48  88 NE16      30.13F
PAXTON           N/A     58  36  44 E9          N/A
SUTHERLAND       N/A     47  40  76 E12         N/A
GOTHENBURG       N/A     48  43  83 NE8         N/A
CALLAWAY         N/A     51  43  73 E14         N/A
$$

...NORTH PLATTE AREA...

CITY           SKY/WX    TMP DP  RH WIND       PRES   REMARKS
AIRPORT        LGT RAIN  49  43  80 E15       30.14S
DOWNTOWN         N/A     49  43  79 MISG        N/A
$$

...SOME WEATHER OBSERVATIONS FROM AROUND THE REGION...

CITY           SKY/WX    TMP DP  RH WIND       PRES   REMARKS
DENVER         PTSUNNY   60  48  64 NE8       30.09F
LARAMIE        CLOUDY    51  41  68 SE26G33   30.09F
CHEYENNE       LGT RAIN  52  43  71 S8        30.13F
SCOTTSBLUFF    CLOUDY    59  36  42 SE16G22   30.13F
RAPID CITY     CLOUDY    52  38  58 S7        30.19F
PIERRE         CLOUDY    66  22  18 E7        30.18F
WINNER         CLOUDY    70  19  14 E16       30.16F
SIOUX FALLS    CLOUDY    72  31  22 E12       30.15S
OMAHA          LGT RAIN  66  58  75 E5        30.09R
GRAND ISLAND   CLOUDY    54  50  86 NE10      30.11S
KANSAS CITY    CLOUDY    81  64  56 SE10      30.03F
WICHITA        PTSUNNY   84  61  45 S16G24    30.00F
HAYS           PTSUNNY   75  54  46 NE3       30.02F
LIBERAL        MOSUNNY   79  54  41 SE15G21   30.00F
GOODLAND       CLOUDY    62  47  57 NE6       30.10F
$$



USA.gov is the U.S. government's official web portal to all federal, state and local government web resources and services.